Regional Weather Roundup
Issued by NWS

Home | Current Version | Previous Version | Graphics & Text | Print | Product List | Glossary Off
Versions: 1 2 3 4 5 6 7 8 9 10 11 12 13 14 15 16 17 18 19 20 21 22 23 24 25 26 27 28 29 30 31 32 33 34 35 36 37 38 39 40 41 42 43 44 45 46 47 48 49 50

000
ASUS43 KTOP 260459
RWRKS

WEATHER ROUNDUP FOR KANSAS
NATIONAL WEATHER SERVICE GOODLAND KS
1200 AM CDT TUE JUL 26 2016

NOTE:  "FAIR" INDICATES FEW OR NO CLOUDS BELOW 12,000 FEET WITH NO
SIGNIFICANT WEATHER AND/OR OBSTRUCTIONS TO VISIBILITY.

KSZ001>006-013>018-027>032-041>047-260600-
NORTHWEST KANSAS

CITY           SKY/WX    TMP DP  RH WIND       PRES   REMARKS
GOODLAND       PTCLDY    71  65  81 S9        30.16S
HAYS           CLEAR     72  61  68 SE5       30.13R
HILL CITY      PTCLDY    72  65  78 E3        30.13R
RUSSELL        CLEAR     70  66  87 SE3       30.11R
$$

KSZ061>065-074>080-084>089-260600-
SOUTHWEST KANSAS

CITY           SKY/WX    TMP DP  RH WIND       PRES   REMARKS
DODGE CITY     CLOUDY    71  68  90 E7        30.12R
ELKHART          N/A     72  65  79 E6          N/A
GARDEN CITY    CLOUDY    71  67  87 E8        30.13F
GREAT BEND     CLEAR     73  63  68 E6        30.10S
LIBERAL        CLOUDY    79  63  57 E8        30.14R
$$

KSZ066>073-081>083-090>101-260600-
SOUTHEAST KANSAS

CITY           SKY/WX    TMP DP  RH WIND       PRES   REMARKS
CHANUTE        CLOUDY    76  73  91 NE5       30.03F
COFFEYVILLE    PTCLDY    76  74  93 NE6       30.02S
HUTCHINSON     CLEAR     73  70  90 E5        30.08R
NEWTON         CLEAR     72  71  97 NE3       30.09R
PARSONS          N/A    N/A N/A N/A MISG      30.04S
WICHITA INTL   PTCLDY    77  71  82 E7        30.05R
WICHITA JABRA  CLEAR     73  72  96 NE3       30.06R
WINFIELD       PTCLDY    76  73  91 E5        30.05R
$$

KSZ007>012-019>026-033>040-048>060-102>105-260600-
NORTHEAST KANSAS

CITY           SKY/WX    TMP DP  RH WIND       PRES   REMARKS
CONCORDIA      CLEAR     69  64  84 CALM      30.10R
EMPORIA        CLOUDY    74  72  93 E5        30.05F
LAWRENCE       CLOUDY    75  67  76 NE5       30.05S
MANHATTAN      CLEAR     71  66  84 CALM      30.06S
OLATHE IND     CLOUDY    76  68  76 E5        30.06F
OLATHE EXE     PTCLDY    76  67  73 E5        30.06F
SALINA         CLEAR     75  68  78 CALM      30.07R
TOPEKA BILLARD MOCLDY    75  67  76 CALM      30.05F
TOPEKA FORBES  CLOUDY    76  68  76 E5        30.06S
$$




USA.gov is the U.S. government's official web portal to all federal, state and local government web resources and services.